Skip to main content Skip to accessibility
This website is not compatible with your web browser. You should install a newer browser. If you live in Jersey and need help upgrading call the States of Jersey web team on 440099.
Homegov.je

L'înformâtion et les sèrvices publyis pouor I'Île dé Jèrri

  • Choose the service you want to log in to:

  • gov.je

    Update your notification preferences

  • one.gov.je

    Access government and parish services

  • CAESAR

    Clear goods through customs or claim relief

  • Talentlink

    View or update your States of Jersey job application

CI Airfield TAFs

JERSEY - EGJJ

EGJJ 241654Z 2418/2503 12011KT CAVOK BECMG 2419/2422 28009KT SCT005 TEMPO 2500/2503 5000 BR BKN005=

GUERNSEY - EGJB

EGJB 241654Z 2418/2503 11010KT CAVOK BECMG 2419/2421 27009KT SCT004 TEMPO 2423/2503 4000 BR BKN004=

ALDERNEY - EGJA

EGJA 241835Z 2418/2503 CNL=

Back to top
rating button